Weather reports worldwide

Advertisment
Wilkes-Barre/Scrant PA, United States of America (72513): temperature & dewpoint: 14.09.2017 21:00:00 - 20.09.2017 21:00:00 (EDT)Wilkes-Barre/Scrant PA, United States of America (72513): wind speed: 14.09.2017 21:00:00 - 20.09.2017 21:00:00 (EDT)Wilkes-Barre/Scrant PA, United States of America (72513): wind direction: 14.09.2017 21:00:00 - 20.09.2017 21:00:00 (EDT)Wilkes-Barre/Scrant PA, United States of America (72513): reduced air pressure: 14.09.2017 21:00:00 - 20.09.2017 21:00:00 (EDT)Wilkes-Barre/Scrant PA, United States of America (72513): visibility: 14.09.2017 21:00:00 - 20.09.2017 21:00:00 (EDT)Wilkes-Barre/Scrant PA, United States of America (72513): precipitation: 14.09.2017 21:00:00 - 20.09.2017 21:00:00 (EDT)
Date & Time tt [°C] td [°C] ff [km/h] ff [kn] dd ppp [hPa] vv [km] rr [mm]
20.09.2017 21:00:00 21,7 16,7 8 4 ESE 1014,9 16 -
20.09.2017 20:00:00 22,8 16,1 5 3 E 1014,7 16 0,0
20.09.2017 19:00:00 26,1 15,6 9 5 N 1014,2 16 -
20.09.2017 18:00:00 27,8 15,6 13 7 N 1013,9 16 -
20.09.2017 17:00:00 28,3 15,0 21 11 N 1013,8 16 0,0
20.09.2017 16:00:00 28,9 15,6 22 12 N 1013,7 16 -
20.09.2017 15:00:00 28,9 15,6 16 9 N 1013,7 16 -
20.09.2017 14:00:00 28,3 15,6 13 7 N 1013,9 16 0,0
20.09.2017 13:00:00 27,8 15,6 16 9 NNE 1014,3 16 -
20.09.2017 12:00:00 26,1 15,6 13 7 N 1014,6 16 -
20.09.2017 11:00:00 23,3 16,1 0 0 N 1014,9 16 0,0
20.09.2017 10:00:00 21,1 16,1 5 3 - 1015,8 16 -
20.09.2017 09:00:00 18,3 15,6 0 0 N 1015,6 15 -
20.09.2017 08:00:00 16,1 15,0 8 4 SSW 1015,6 13 0,0
20.09.2017 07:00:00 14,4 13,9 5 3 SE 1014,7 11 -
20.09.2017 06:00:00 15,0 14,4 0 0 N 1014,0 13 -
20.09.2017 05:00:00 16,1 15,0 5 3 S 1013,6 15 0,0
20.09.2017 04:00:00 16,1 15,0 0 0 N 1013,7 15 -
20.09.2017 03:00:00 16,7 15,6 5 3 E 1013,8 16 -
20.09.2017 02:00:00 17,2 16,1 8 4 S 1014,1 15 0,0
20.09.2017 01:00:00 17,8 16,1 5 3 E 1013,9 16 -
20.09.2017 00:00:00 18,3 16,1 0 0 N 1014,1 16 -
19.09.2017 23:00:00 20,6 16,1 0 0 N 1014,3 16 0,0
19.09.2017 22:00:00 20,0 16,1 5 3 E 1014,5 16 -
19.09.2017 21:00:00 21,7 16,1 8 4 E 1014,4 16 -
19.09.2017 20:00:00 22,8 17,2 5 3 ESE 1014,0 16 0,0
19.09.2017 19:00:00 25,6 17,2 9 5 NNE 1013,8 16 -
19.09.2017 18:00:00 27,8 14,4 9 5 NE 1013,7 16 -
19.09.2017 17:00:00 28,3 13,9 15 8 NE 1013,8 16 0,0
19.09.2017 16:00:00 28,3 14,4 16 9 NE 1013,9 16 -
19.09.2017 15:00:00 27,8 16,1 15 8 NNE 1014,6 16 -
19.09.2017 14:00:00 26,1 17,8 5 3 - 1015,5 16 0,0
19.09.2017 13:00:00 25,0 17,2 13 7 ENE 1016,3 16 -
19.09.2017 12:00:00 23,3 17,2 15 8 NNE 1017,0 16 -
19.09.2017 11:00:00 21,7 17,2 15 8 NNE 1017,7 16 0,0
19.09.2017 10:00:00 20,6 17,2 13 7 ENE 1018,3 16 -
19.09.2017 09:00:00 19,4 17,2 8 4 ENE 1018,0 13 -
19.09.2017 08:00:00 18,9 17,2 9 5 NNE 1018,2 13 0,0
19.09.2017 07:00:00 18,9 16,7 8 4 NE 1018,3 16 -
19.09.2017 06:00:00 17,8 16,7 8 4 E 1018,0 15 -
19.09.2017 05:00:00 18,9 16,7 9 5 NE 1017,8 16 0,0
19.09.2017 04:00:00 17,8 16,1 5 3 ENE 1017,8 15 -
19.09.2017 03:00:00 17,2 16,1 5 3 E 1018,1 15 -
19.09.2017 02:00:00 17,8 16,7 0 0 N 1018,3 15 -
19.09.2017 01:00:00 19,4 17,2 0 0 N 1018,9 16 -
19.09.2017 00:00:00 19,4 17,8 0 0 N 1019,1 16 -
18.09.2017 23:00:00 19,4 17,8 5 3 SSE 1019,5 16 0,0
18.09.2017 22:00:00 20,6 17,8 0 0 N 1019,2 16 -
18.09.2017 21:00:00 21,7 17,8 0 0 N 1018,7 16 -
18.09.2017 20:00:00 22,2 17,2 11 6 SE 1018,3 16 0,0
18.09.2017 19:00:00 23,9 16,7 5 3 SE 1017,7 16 -
18.09.2017 18:00:00 26,1 16,1 8 4 S 1017,7 16 -
18.09.2017 17:00:00 27,2 15,6 9 5 ESE 1017,8 16 0,0
18.09.2017 16:00:00 26,7 15,0 9 5 E 1017,8 16 -
18.09.2017 15:00:00 27,2 15,0 8 4 - 1018,3 16 -
18.09.2017 14:00:00 27,2 15,6 11 6 SE 1018,5 16 0,0
18.09.2017 13:00:00 26,1 16,7 8 4 - 1018,8 16 -
18.09.2017 12:00:00 25,6 17,8 9 5 - 1019,3 16 -
18.09.2017 11:00:00 22,8 17,8 5 3 - 1019,8 15 0,0
18.09.2017 10:00:00 21,1 17,8 8 4 - 1020,5 15 -
18.09.2017 09:00:00 19,4 16,7 8 4 ENE 1020,7 16 -
18.09.2017 08:00:00 16,7 15,6 8 4 E 1020,4 13 0,0
18.09.2017 07:00:00 16,1 15,6 8 4 SE 1019,9 11 -
18.09.2017 06:00:00 16,7 15,6 5 3 E 1019,8 13 -
18.09.2017 05:00:00 16,7 15,6 8 4 ESE 1019,2 11 0,0
18.09.2017 04:00:00 17,2 16,1 8 4 E 1019,0 13 -
18.09.2017 03:00:00 17,2 16,7 9 5 E 1019,1 15 -
18.09.2017 02:00:00 17,8 16,7 9 5 E 1019,7 15 0,0
18.09.2017 01:00:00 18,3 17,2 8 4 E 1019,9 15 -
18.09.2017 00:00:00 18,9 17,2 9 5 ESE 1020,0 15 -
17.09.2017 23:00:00 19,4 17,8 11 6 E 1020,1 15 0,0
17.09.2017 22:00:00 19,4 18,3 0 0 N 1019,9 15 -
17.09.2017 21:00:00 21,1 18,3 8 4 ENE 1019,8 16 -
17.09.2017 20:00:00 22,2 18,9 5 3 ESE 1019,3 16 -
17.09.2017 19:00:00 23,9 18,9 0 0 N 1018,9 16 -
17.09.2017 18:00:00 25,6 18,3 9 5 SE 1018,7 16 -
17.09.2017 17:00:00 26,7 18,3 8 4 SSE 1018,6 16 -
17.09.2017 16:00:00 26,7 17,8 0 0 N 1018,9 16 -
17.09.2017 15:00:00 26,7 17,2 8 4 NNE 1019,4 16 0,0
17.09.2017 14:00:00 27,2 18,3 8 4 WNW 1019,7 16 0,0
17.09.2017 13:00:00 26,1 19,4 8 4 SSW 1020,7 16 -
17.09.2017 12:00:00 25,6 19,4 5 3 - 1021,1 16 -
17.09.2017 11:00:00 23,9 19,4 5 3 W 1021,3 15 0,0
17.09.2017 10:00:00 23,3 19,4 11 6 NNE 1021,3 16 -
17.09.2017 09:00:00 20,6 17,8 11 6 ENE 1021,6 16 -
17.09.2017 08:00:00 18,9 17,2 8 4 E 1021,8 16 0,0
17.09.2017 07:00:00 18,3 17,2 8 4 E 1021,5 16 -
17.09.2017 06:00:00 18,3 17,2 5 3 NE 1020,9 15 -
17.09.2017 05:00:00 18,3 17,2 0 0 N 1020,2 13 0,0
17.09.2017 04:00:00 18,3 17,2 0 0 N 1020,3 13 -
17.09.2017 03:00:00 18,9 17,8 9 5 E 1020,4 15 -
17.09.2017 02:00:00 18,9 17,8 8 4 ENE 1020,6 15 -
17.09.2017 01:00:00 19,4 17,8 8 4 E 1020,7 16 -
17.09.2017 00:00:00 19,4 18,3 9 5 E 1020,9 15 -
16.09.2017 23:00:00 19,4 18,9 9 5 E 1021,0 15 0,0
16.09.2017 22:00:00 20,0 19,4 0 0 N 1020,7 13 -
16.09.2017 21:00:00 21,1 20,0 0 0 N 1020,8 15 -
16.09.2017 20:00:00 21,7 19,4 11 6 ENE 1020,6 16 -
16.09.2017 19:00:00 22,2 20,0 0 0 N 1020,7 16 0,0
16.09.2017 18:00:00 22,2 20,0 11 6 NNE 1021,1 16 0,0
16.09.2017 17:00:00 26,1 19,4 8 4 W 1020,4 16 -
16.09.2017 16:00:00 24,4 20,0 8 4 SSW 1020,3 16 0,0
16.09.2017 15:00:00 26,7 18,3 0 0 N 1020,3 16 0,0
16.09.2017 14:00:00 26,7 18,3 9 5 - 1020,6 16 0,0
16.09.2017 13:00:00 27,2 18,3 5 3 - 1021,0 16 -
16.09.2017 12:00:00 26,1 18,9 5 3 - 1021,5 16 -
16.09.2017 11:00:00 23,3 17,8 0 0 N 1021,9 16 0,0
16.09.2017 10:00:00 22,2 17,8 5 3 NE 1022,1 15 -
16.09.2017 09:00:00 20,0 17,8 0 0 N 1022,1 13 -
16.09.2017 08:00:00 17,2 16,7 0 0 N 1022,0 11 0,0
16.09.2017 07:00:00 16,7 16,1 0 0 N 1021,5 10 -
16.09.2017 06:00:00 16,7 16,1 0 0 N 1020,9 10 -
16.09.2017 05:00:00 16,7 16,1 0 0 N 1020,2 10 0,0
16.09.2017 04:00:00 17,8 16,7 0 0 N 1020,2 13 -
16.09.2017 03:00:00 17,8 16,7 0 0 N 1020,1 13 -
16.09.2017 02:00:00 17,8 16,7 0 0 N 1020,0 13 -
16.09.2017 01:00:00 18,3 17,2 9 5 E 1020,0 15 -
16.09.2017 00:00:00 18,9 17,2 9 5 ESE 1019,9 15 -
15.09.2017 23:00:00 18,9 17,2 8 4 E 1019,7 15 0,0
15.09.2017 22:00:00 20,0 17,8 0 0 N 1019,6 16 -
15.09.2017 21:00:00 21,7 17,8 9 5 E 1019,2 16 -
15.09.2017 20:00:00 22,2 18,3 8 4 ESE 1018,8 16 0,0
15.09.2017 19:00:00 24,4 17,2 5 3 N 1018,2 16 -
15.09.2017 18:00:00 26,1 16,7 11 6 N 1017,8 16 -
15.09.2017 17:00:00 26,7 17,2 9 5 N 1017,2 16 0,0
15.09.2017 16:00:00 27,2 17,2 11 6 NNW 1017,3 16 -
15.09.2017 15:00:00 26,1 17,2 - - - 1017,7 16 -
15.09.2017 14:00:00 23,9 17,2 5 3 - 1018,0 16 0,0
15.09.2017 13:00:00 23,9 17,8 9 5 NNE 1018,1 16 -
15.09.2017 12:00:00 22,8 17,2 0 0 N 1018,6 16 -
15.09.2017 11:00:00 22,2 16,7 5 3 - 1018,9 16 0,0
15.09.2017 10:00:00 21,1 16,7 5 3 W 1018,8 16 -
15.09.2017 09:00:00 20,6 16,7 5 3 WNW 1018,2 16 -
15.09.2017 08:00:00 18,3 16,7 0 0 N 1017,6 15 0,0
15.09.2017 07:00:00 18,3 16,7 0 0 N 1016,8 16 -
15.09.2017 06:00:00 18,3 17,2 5 3 SSW 1016,0 16 -
15.09.2017 05:00:00 18,9 17,2 5 3 SW 1015,3 10 0,0
15.09.2017 04:00:00 18,9 17,8 8 4 WNW 1015,0 16 -
15.09.2017 03:00:00 18,9 17,2 8 4 WSW 1014,8 16 -
15.09.2017 02:00:00 18,9 17,2 0 0 N 1014,8 16 -
15.09.2017 01:00:00 18,9 17,2 0 0 N 1014,5 16 -
15.09.2017 00:00:00 18,9 17,2 8 4 SW 1014,1 16 -
14.09.2017 23:00:00 18,9 16,7 8 4 SW 1014,0 16 0,0
14.09.2017 22:00:00 19,4 16,7 8 4 SSW 1013,5 16 -
14.09.2017 21:00:00 19,4 16,7 8 4 SW 1013,5 16 -

tt = temperature
td = dewpoint
ff = wind speed
dd = wind direction
ppp = reduced air pressure
vv = visibility
rr = precipitation

Next stations